When you browse on this site, cookies collect data to enhance your experience and personalize the content and advertising you see.
Visit our Privacy Policy to learn more. By continuing to use the site, you agree to this use of cookies and data.
  • In Denmark
  • List of Countries
  • For 7 days
  • Water Temperature
  • Satellite Maps
  • Weather Map
  • Weather Widgets
  • user-avatar
    Login

    Hourly Weather Omagh

    Today, 19 April, Friday

    Time Temperature Precipitation Wind Pressure Humidity
    00:00 +8°C° 0 mm 1 mps 763 mmHg 95%
    01:00 +8°C° 0 mm 1 mps 763 mmHg 95%
    02:00 +8°C° 0 mm 1 mps 763 mmHg 95%
    03:00 +8°C° 0 mm 1 mps 763 mmHg 95%
    04:00 +8°C° 0 mm 1 mps 763 mmHg 96%
    05:00 +8°C° 0 mm 1 mps 763 mmHg 96%
    06:00 +8°C° 0 mm 1 mps 763 mmHg 96%
    07:00 +10°C° 0 mm 1 mps 764 mmHg 91%
    08:00 +13°C° 0 mm 2 mps 764 mmHg 86%
    09:00 +15°C° 0 mm 2 mps 764 mmHg 82%
    10:00 +17°C° 0 mm 3 mps 764 mmHg 76%
    11:00 +18°C° 0 mm 3 mps 764 mmHg 71%
    12:00 +20°C° 0 mm 4 mps 764 mmHg 66%
    13:00 +20°C° 0 mm 4 mps 764 mmHg 66%
    14:00 +21°C° 0 mm 4 mps 764 mmHg 66%
    15:00 +21°C° 0 mm 4 mps 764 mmHg 66%
    16:00 +20°C° 0 mm 3 mps 764 mmHg 70%
    17:00 +20°C° 0 mm 3 mps 764 mmHg 74%
    18:00 +19°C° 0 mm 2 mps 764 mmHg 77%
    19:00 +17°C° 0 mm 2 mps 765 mmHg 83%
    20:00 +16°C° 0 mm 2 mps 765 mmHg 89%
    21:00 +14°C° 0 mm 2 mps 765 mmHg 95%
    22:00 +13°C° 0 mm 2 mps 765 mmHg 96%
    23:00 +13°C° 0 mm 1 mps 765 mmHg 97%

    Tomorrow, 20 April, Saturday

    Time Temperature Precipitation Wind Pressure Humidity
    00:00 +13°C° 0 mm 1 mps 765 mmHg 98%
    01:00 +12°C° 0 mm 1 mps 765 mmHg 98%
    02:00 +12°C° 0 mm 1 mps 765 mmHg 98%
    03:00 +11°C° 0 mm 1 mps 765 mmHg 98%
    04:00 +11°C° 0 mm 1 mps 765 mmHg 98%
    05:00 +11°C° 0 mm 1 mps 766 mmHg 98%
    06:00 +10°C° 0 mm 1 mps 766 mmHg 98%
    07:00 +12°C° 0 mm 1 mps 766 mmHg 94%
    08:00 +13°C° 0 mm 1 mps 766 mmHg 90%
    09:00 +14°C° 0 mm 1 mps 766 mmHg 87%
    10:00 +15°C° 0.1 mm 1 mps 766 mmHg 86%
    11:00 +15°C° 0.1 mm 1 mps 766 mmHg 85%
    12:00 +16°C° 0.1 mm 1 mps 766 mmHg 84%
    13:00 +16°C° 0.1 mm 1 mps 766 mmHg 85%
    14:00 +16°C° 0.1 mm 1 mps 766 mmHg 85%
    15:00 +16°C° 0.1 mm 1 mps 766 mmHg 85%
    16:00 +16°C° 0.2 mm 1 mps 766 mmHg 88%
    17:00 +16°C° 0.2 mm 1 mps 766 mmHg 91%
    18:00 +15°C° 0.2 mm 2 mps 765 mmHg 93%
    19:00 +14°C° 0.1 mm 2 mps 765 mmHg 95%
    20:00 +13°C° 0.1 mm 1 mps 765 mmHg 96%
    21:00 +12°C° 0.1 mm 1 mps 765 mmHg 98%
    22:00 +12°C° 0.1 mm 1 mps 764 mmHg 98%
    23:00 +12°C° 0.1 mm 1 mps 763 mmHg 97%

    Day after tomorrow, 21 April, Sunday

    Time Temperature Precipitation Wind Pressure Humidity
    00:00 +12°C° 0.1 mm 1 mps 763 mmHg 97%
    01:00 +11°C° 0.2 mm 1 mps 762 mmHg 97%
    02:00 +11°C° 0.2 mm 1 mps 761 mmHg 97%
    03:00 +11°C° 0.2 mm 1 mps 760 mmHg 98%
    04:00 +11°C° 0.5 mm 1 mps 760 mmHg 97%
    05:00 +10°C° 0.5 mm 2 mps 759 mmHg 97%
    06:00 +10°C° 0.5 mm 2 mps 758 mmHg 97%
    07:00 +12°C° 0 mm 2 mps 758 mmHg 96%
    08:00 +12°C° 0 mm 3 mps 757 mmHg 94%
    09:00 +13°C° 0 mm 3 mps 757 mmHg 93%
    10:00 +14°C° 0 mm 3 mps 756 mmHg 88%
    11:00 +15°C° 0 mm 4 mps 756 mmHg 83%
    12:00 +17°C° 0 mm 4 mps 755 mmHg 78%
    13:00 +17°C° 0 mm 4 mps 754 mmHg 78%
    14:00 +17°C° 0 mm 4 mps 753 mmHg 79%
    15:00 +17°C° 0 mm 4 mps 753 mmHg 79%
    16:00 +17°C° 0.2 mm 4 mps 752 mmHg 83%
    17:00 +16°C° 0.2 mm 3 mps 752 mmHg 88%
    18:00 +16°C° 0.2 mm 3 mps 751 mmHg 92%
    19:00 +14°C° 0.1 mm 3 mps 751 mmHg 93%
    20:00 +13°C° 0.1 mm 3 mps 750 mmHg 95%
    21:00 +13°C° 0.1 mm 3 mps 750 mmHg 96%
    22:00 +12°C° 0 mm 3 mps 749 mmHg 96%
    23:00 +11°C° 0 mm 3 mps 749 mmHg 95%

    22 April, Monday

    Time Temperature Precipitation Wind Pressure Humidity
    00:00 +10°C° 0 mm 3 mps 748 mmHg 95%
    01:00 +10°C° 0 mm 3 mps 748 mmHg 94%
    02:00 +9°C° 0 mm 3 mps 747 mmHg 93%
    03:00 +8°C° 0 mm 3 mps 746 mmHg 92%
    04:00 +9°C° 0 mm 3 mps 746 mmHg 92%
    05:00 +9°C° 0 mm 3 mps 746 mmHg 92%
    06:00 +9°C° 0 mm 3 mps 745 mmHg 93%
    07:00 +10°C° 0 mm 4 mps 745 mmHg 87%
    08:00 +12°C° 0 mm 5 mps 745 mmHg 82%
    09:00 +14°C° 0 mm 6 mps 745 mmHg 77%
    10:00 +15°C° 0 mm 6 mps 745 mmHg 72%
    11:00 +16°C° 0 mm 6 mps 744 mmHg 68%
    12:00 +17°C° 0 mm 6 mps 744 mmHg 63%
    13:00 +17°C° 0.1 mm 6 mps 744 mmHg 65%
    14:00 +17°C° 0.1 mm 6 mps 744 mmHg 67%
    15:00 +17°C° 0.1 mm 6 mps 743 mmHg 69%
    16:00 +17°C° 0.1 mm 6 mps 743 mmHg 72%
    17:00 +16°C° 0.1 mm 5 mps 743 mmHg 76%
    18:00 +16°C° 0.1 mm 5 mps 743 mmHg 79%
    19:00 +14°C° 0 mm 4 mps 743 mmHg 84%
    20:00 +13°C° 0 mm 3 mps 743 mmHg 89%
    21:00 +12°C° 0 mm 3 mps 743 mmHg 94%
    22:00 +12°C° 0 mm 2 mps 743 mmHg 95%
    23:00 +10°C° 0 mm 2 mps 743 mmHg 96%

    23 April, Tuesday

    Time Temperature Precipitation Wind Pressure Humidity
    00:00 +10°C° 0 mm 1 mps 743 mmHg 97%
    01:00 +10°C° 0 mm 1 mps 743 mmHg 97%
    02:00 +9°C° 0 mm 1 mps 743 mmHg 98%
    03:00 +9°C° 0 mm 1 mps 743 mmHg 98%
    04:00 +9°C° 0 mm 1 mps 743 mmHg 98%
    05:00 +9°C° 0 mm 1 mps 743 mmHg 98%
    06:00 +9°C° 0 mm 1 mps 743 mmHg 98%
    07:00 +11°C° 0 mm 1 mps 743 mmHg 92%
    08:00 +13°C° 0 mm 2 mps 743 mmHg 86%
    09:00 +14°C° 0 mm 2 mps 742 mmHg 80%
    10:00 +14°C° 0 mm 3 mps 742 mmHg 77%
    11:00 +15°C° 0 mm 4 mps 742 mmHg 74%
    12:00 +16°C° 0 mm 5 mps 742 mmHg 71%
    13:00 +16°C° 0.1 mm 5 mps 741 mmHg 75%
    14:00 +15°C° 0.1 mm 5 mps 741 mmHg 78%
    15:00 +14°C° 0.1 mm 5 mps 740 mmHg 82%
    16:00 +14°C° 0.1 mm 4 mps 740 mmHg 84%
    17:00 +14°C° 0.1 mm 4 mps 740 mmHg 86%
    18:00 +14°C° 0.1 mm 4 mps 739 mmHg 88%
    19:00 +13°C° 0.1 mm 4 mps 739 mmHg 91%
    20:00 +12°C° 0.1 mm 3 mps 739 mmHg 95%
    21:00 +11°C° 0.1 mm 3 mps 739 mmHg 98%
    22:00 +11°C° 0 mm 3 mps 739 mmHg 98%
    23:00 +10°C° 0 mm 2 mps 739 mmHg 98%

    24 April, Wednesday

    Time Temperature Precipitation Wind Pressure Humidity
    00:00 +9°C° 0 mm 2 mps 739 mmHg 98%
    01:00 +9°C° 0 mm 2 mps 739 mmHg 98%
    02:00 +9°C° 0 mm 2 mps 738 mmHg 98%
    03:00 +10°C° 0 mm 3 mps 738 mmHg 98%
    04:00 +10°C° 0.6 mm 3 mps 738 mmHg 98%
    05:00 +10°C° 0.6 mm 3 mps 738 mmHg 97%
    06:00 +11°C° 0.6 mm 3 mps 738 mmHg 97%
    07:00 +11°C° 0 mm 3 mps 739 mmHg 93%
    08:00 +11°C° 0 mm 3 mps 739 mmHg 89%
    09:00 +11°C° 0 mm 3 mps 739 mmHg 85%
    10:00 +12°C° 0 mm 4 mps 740 mmHg 79%
    11:00 +12°C° 0 mm 4 mps 740 mmHg 72%
    12:00 +12°C° 0 mm 5 mps 740 mmHg 66%
    13:00 +12°C° 0 mm 5 mps 740 mmHg 65%
    14:00 +12°C° 0 mm 5 mps 739 mmHg 64%
    15:00 +11°C° 0 mm 6 mps 739 mmHg 63%
    16:00 +11°C° 0 mm 6 mps 739 mmHg 65%
    17:00 +11°C° 0 mm 6 mps 739 mmHg 67%
    18:00 +11°C° 0 mm 6 mps 739 mmHg 69%
    19:00 +10°C° 0 mm 5 mps 739 mmHg 72%
    20:00 +9°C° 0 mm 5 mps 739 mmHg 75%
    21:00 +8°C° 0 mm 5 mps 739 mmHg 78%
    22:00 +8°C° 0 mm 5 mps 739 mmHg 79%
    23:00 +8°C° 0 mm 4 mps 739 mmHg 80%
    Show more